SL-12 R/B(2)

Last updated on Sun Jul 06 2025 00:02:13 GMT+0000 (Coordinated Universal Time)

1 15772U 85042D 25186.65147550 .00000037 00000+0 37929-4 0 9999 2 15772 71.1072 249.6028 0034164 153.3252 8.7835 14.21892683 79272
UTC large
Height (km)
Speed (km/s)
/
Latitude / Longitude
Inclination (degrees)
Orbital Period (minutes)
Azimuth
Elevation
Range (km)
Doppler Factor

Next 0 passes for location: London (51.5072 / 0.1276)

Sorry there are no passes over London.